User: anonymous   Login
Location: Lecco
(45.8566°N, 9.3977°E)
Time: 10:51:59
(UTC+02:00)
Language:

Transit 4A - Orbit

View from above orbital plane
View from above orbital plane
View from above satellite
View from above satellite

Ground track
Ground track

The orbit data is extracted from the following two-line orbital elements,

1   116U 61015A   20226.88976260 -.00000074 +00000-0 +22308-5 0  9991
2   116 066.8096 067.8093 0079361 324.2908 035.2877 13.91773332999819
Epoch (UTC): 13 August 2020 21:21:15
Eccentricity: 0.0079361
inclination: 66.8096°
perigee height: 864 km
apogee height: 980 km
right ascension of ascending node: 67.8093°
argument of perigee: 324.2908°
revolutions per day: 13.91773332
mean anomaly at epoch: 35.2877°
orbit number at epoch: 99981

The dashed part of the orbit path shows where the satellite is in the earth's shadow,  

DLR